www.pogodaiklimat.ru

Погода и климат >> Архив погоды >> Канада >> Квебек >> Лак Эон


ПОГОДА на Лак Эон

  • Прогноз погоды на Лак Эон
  • Монитор погоды на Лак Эон

АРХИВ ПОГОДЫ на Лак Эон

Время (UTC), дата Ветер
(напр.,м/с)
 
Видим.   Явления Облачность Т
(С)
Тd
(С)
f
(%)
Тe
(С)
Тes
(С)
Комфортность P
(гПа)
Po
(гПа)
Тmin
(С)
Tmax
(С)
R
(мм)
R24
(мм)
S
(см)
18 12.06 СЗ 5 н/о н/о +6.3 +2.1 74 +2 +2 1001.7 932.2 +3.4 +9.1
21 12.06 СЗ 8 н/о н/о +6.5 +0.3 65 +2 +2 1004.0 934.3
00 13.06 СЗ 6 н/о н/о +3.6 +1.0 83 -2 -2 1008.7 938.3 +3.3 +7.4
03 13.06 СЗ 6 н/о {осадки} н/о +4.3 +0.9 79 -1 -1 1010.8 940.3 0.7
06 13.06 СЗ 7 н/о {осадки} н/о +4.9 -0.6 68 -0 -0 1013.9 943.3 +3.1 +9.1 0.7 23
09 13.06 СЗ 5 н/о н/о +3.2 -0.8 75 -2 -2 1017.9 946.9
12 13.06 СЗ 5 н/о н/о +7.9 -2.7 47 +5 +5 1020.9 949.9 +3.1 +9.1
15 13.06 СЗ 4 н/о н/о +13.0 -3.0 33 +12 +12 1021.8 951.1 0.2
18 13.06 С 3 н/о н/о +16.4 -5.3 22 +16 +16 1022.1 951.6 +3.1 +17.0 0.4
21 13.06 С 1 н/о н/о +18.5 -2.4 24 +20 +20 1022.5 952.0
00 14.06 В 2 н/о н/о +15.6 -0.2 34 +16 +16 1022.3 952.0 +3.1 +18.7
03 14.06 ЮВ 2 н/о н/о +10.5 +0.2 49 +10 +10 1023.1 952.7
06 14.06 ЮВ 2 н/о н/о +8.5 +0.4 57 +8 +8 1022.0 951.8 +3.1 +18.7 7
09 14.06 В 2 н/о н/о +8.4 +1.0 60 +7 +7 1021.0 951.0
12 14.06 ЮВ 4 н/о н/о +10.2 +3.6 64 +8 +8 1020.5 950.4 +7.8 +18.7
18 14.06 Ю 7 н/о н/о +13.0 +2.6 49 +11 +11 1016.7 946.6
21 14.06 ЮВ 5 н/о н/о +10.8 +4.1 63 +8 +8 1015.7 945.5
00 15.06 ЮВ 4 н/о н/о +7.8 +5.2 84 +5 +5 1015.5 945.3
03 15.06 ЮВ 4 н/о н/о +6.8 +5.1 89 +3 +3 1014.8 944.6
06 15.06 ЮВ 4 н/о н/о +7.0 +5.1 88 +4 +4 1013.9 943.9 18
09 15.06 Ю 4 н/о н/о +7.0 +5.3 89 +3 +3 1014.2 944.0
12 15.06 Ю 5 н/о н/о +7.6 +5.3 85 +4 +4 1014.4 944.1 +6.4
15 15.06 Ю 4 н/о н/о +9.7 +5.7 76 +7 +7 1013.7 943.5
18 15.06 В 4 н/о н/о +11.7 +6.8 72 +10 +10 1013.1 943.1 +6.4 +12.9
21 15.06 Ю 4 н/о н/о +10.1 +6.7 79 +8 +8 1014.0 943.8
00 16.06 Ю 4 н/о н/о +8.7 +6.6 87 +6 +6 1014.4 944.1 +6.9 +12.9
03 16.06 Ю 3 н/о н/о +7.3 +6.2 93 +4 +4 1013.8 943.6 0.2
06 16.06 ЮВ 3 н/о н/о +7.2 +6.2 93 +4 +4 1012.6 942.6 +6.9 +12.9 0.2 11
09 16.06 ЮВ 4 н/о н/о +6.3 +5.7 96 +3 +3 1011.7 941.6
12 16.06 ЮВ 3 н/о {осадки} н/о +6.1 +5.3 95 +3 +3 1010.4 940.3 +6.0 +12.9 1
15 16.06 ЮВ 4 н/о н/о +7.0 +6.0 93 +3 +3 1010.0 939.9 4
18 16.06 Ю 6 н/о {осадки} н/о +7.6 +6.5 93 +3 +3 1010.5 940.4 +6.0 +8.6 4
21 16.06 Ю 4 н/о н/о +8.6 +6.3 85 +5 +5 1011.1 941.0
00 17.06 Ю 3 н/о н/о +8.0 +6.1 88 +5 +5 1011.9 941.7 +6.0 +9.3
03 17.06 Ю 3 н/о н/о +7.1 +6.2 94 +4 +4 1012.7 942.4
06 17.06 ЮВ 2 н/о н/о +6.7 +6.1 96 +4 +4 1012.2 941.9 +6.0 +9.3 16
09 17.06 Ю 2 н/о н/о +7.0 +6.4 96 +5 +5 1012.9 942.7
12 17.06 Ю 3 н/о {осадки} н/о +8.2 +7.2 93 +6 +6 1013.1 942.9 +6.3 +9.3 0.7
15 17.06 Ю 4 н/о н/о +10.7 +7.1 78 +8 +8 1012.6 942.6 0.5
18 17.06 ЮВ 2 н/о {осадки} н/о +13.3 +7.6 68 +13 +13 1011.1 941.3 +6.3 +14.9 0.5
21 17.06 Ю 2 н/о н/о +9.0 +8.2 95 +8 +8 1012.0 941.9 9
00 18.06 Ю 2 н/о {осадки} н/о +9.5 +8.4 93 +8 +8 1011.9 941.9 +6.3 +14.9 12
03 18.06 СЗ 2 н/о н/о +7.6 +6.9 95 +6 +6 1012.9 942.9 0.2
06 18.06 СЗ 2 н/о н/о +5.8 +5.0 95 +3 +3 1012.8 942.8 +5.7 +14.9 0.2
09 18.06 З 1 н/о н/о +5.1 +4.1 93 +5 +5 1013.2 942.9
12 18.06 СЗ 2 н/о н/о +8.5 +6.3 86 +7 +7 1013.5 943.4 +3.8 +14.9
15 18.06 СЗ 3 н/о н/о +12.5 +5.2 61 +11 +11 1012.9 943.0
18 18.06 СЗ 2 н/о н/о +14.5 +4.9 52 +15 +15 1012.0 942.2 +3.8 +14.5
21 18.06 ЮЗ 2 н/о н/о +11.9 +7.1 72 +11 +11 1012.2 942.1
00 19.06 С 2 н/о {осадки} н/о +10.2 +7.0 81 +9 +9 1012.6 942.6 +3.8 +15.4 3
03 19.06 ЮЗ 1 н/о н/о +7.2 +6.5 95 +6 +6 1012.7 942.8
06 19.06 СЗ 2 н/о н/о +6.3 +5.8 97 +4 +4 1012.6 942.8 +3.8 +15.4
09 19.06 ЮЗ 2 н/о н/о +6.0 +5.0 93 +4 +4 1012.6 942.6
12 19.06 СЗ 2 н/о н/о +11.7 +6.3 69 +11 +11 1012.8 943.0 +4.4 +15.4 0.3
15 19.06 СЗ 2 н/о н/о +14.0 +3.7 50 +14 +14 1011.6 941.8

 

Местоположение метеостанции Лак Эон (Квебек, Канада): широта 51.87 долгота -63.26 высота над уровнем моря 589 м.

В архиве по умолчанию представлена погода на Лак Эон за последнюю неделю. Архивные данные за месяц целиком и за предыдущие месяцы, начиная с января 2011 года, Вы можете получить, выбрав интересующий диапазон дат из раскрывающегося списка и нажав кнопку "Ввод!".


*Определитесь, кто Вы:
робот инопланетянин человек

Внимание! Время в таблицах - всемирное. Для получения местного времени необходимо прибавить поправку, которая равна -4 ч.

Смотрите также архив погоды в соседних городах и на ближайших метеорологических станциях:

Погода в Лонг Пойнт де Минган (Квебек, Канада) (190 км)
Погода на Острове Перрокетов (Квебек, Канада) (195 км)
Погода в Рекхаусе (Ньюфаундленд и Лабрадор, Канада) (197 км)
Погода в Наташкане (Квебек, Канада) (214 км)
Погода в Пор-Менье (Квебек, Канада) (238 км)
Погода в Аэропорту Гуз-Бэй (Ньюфаундленд и Лабрадор, Канада) (251 км)
Погода в Вабуше (Ньюфаундленд и Лабрадор, Канада) (271 км)
Погода в Сет-Иле (Квебек, Канада) (278 км)
Погода в Пуант-Нуаре (Квебек, Канада) (293 км)
Погода на Кейп Уиттл (Квебек, Канада) (295 км)

Пояснения к столбцам:

Ветер - указаны скорость ветра в м/с - средняя за 10 мин, порывы в срок и между сроками (в фигурных скобках) и направление, откуда дует ветер: С - северный, СВ - северо-восточный, В - восточный, ЮВ - юго-восточный, Ю - южный, ЮЗ - юго-западный, З - западный, СЗ - северо-западный.
Видимость - горизонтальная дальность видимости в метрах или километрах. При видимости от 1 до 10 км при отсутствии осадков обычно наблюдается дымка, при ухудшении видимости до 1 км и менее - туман. В сухую погоду видимость может ухудшаться дымом, пылью или мглою.
Явления - указаны атмосферные явления, наблюдавшиеся в срок или в последний час перед сроком; фигурными скобками обозначены явления, наблюдавшиеся между сроками (за 1-3 часа до срока); квадратными скобками обозначены град или гололедные отложения с указанием их диаметра в мм.
Облачность - указаны через наклонную черту общая и нижняя облачность в баллах и высота нижней границы облаков в метрах; квадратными скобками обозначены формы облаков: Ci - перистые, Cs - перисто-слоистые, Cc - перисто-кучевые, Ac - высококучевые, As - высокослоистые, Sc - слоисто-кучевые, Ns - слоисто-дождевые, Cu - кучевые, Cb - кучево-дождевые. Подробнее классификацию облаков см. в Атласе облаков (PDF).
T - Температура воздуха - температура, измеренная на высоте 2 м над землей.
Td - Температура точки росы - температура, при понижении до которой содержащийся в воздухе водяной пар достигнет насыщения.
f - Относительная влажность воздуха - влажноcть воздуха, измеренная на высоте 2 м над землей.
Te - Эффективная температура - температура, которую ощущает одетый по сезону человек в тени. Характеристика душности погоды. При расчете учитывается влияние влажности воздуха и скорости ветра на теплоощущения человека.
Tes - Эффективная температура на солнце - температура, которую ощущает человек, с поправкой на солнечный нагрев. Характеристика знойности погоды. Зависит от высоты солнца над горизонтом, облачности и скорости ветра. Ночью, в пасмурную погоду, а также при ветре 12 м/с и более поправка равна нулю.
P - Атмосферное давление - приведенное к уровню моря атмосферное давление.
Po - Атмосферное давление - измеренное на уровне метеостанции атмосферное давление.
Tmin - Минимальная температура - минимум температуры воздуха на высоте 2 м над землей.
Tmax - Максимальная температура - максимум температуры воздуха на высоте 2 м над землей.
R - Количество осадков - Количество выпавших осадков за период времени, мм. При наведении курсора мыши на число - период времени, за который выпало указанное количество осадков.
R24 - Количество осадков - Количество выпавших осадков за 24 часа, мм.
S - Снежный покров - Высота снежного покрова, см. При наведении курсора мыши на число - состояние снежного покрова и степень покрытия местности в баллах.